Time,TemperatureF,DewpointF,PressureIn,WindDirection,WindDirectionDegrees,WindSpeedMPH,WindSpeedGustMPH,Humidity,HourlyPrecipIn,Conditions,Clouds,dailyrainin,SoftwareType,DateUTC
2013-07-06 00:02:00,62.5,61.0,30.11,SW,236,1.0,12.0,96,0.00,,,0.00,weatherlink.com 1.10,2013-07-06 04:02:00,
2013-07-06 00:18:00,62.5,62.0,30.11,SSW,194,1.0,5.0,97,0.00,,,0.00,weatherlink.com 1.10,2013-07-06 04:18:00,
2013-07-06 00:33:00,62.3,62.0,30.11,SSE,149,0.0,5.0,97,0.00,,,0.00,weatherlink.com 1.10,2013-07-06 04:33:00,
2013-07-06 00:48:00,62.3,62.0,30.11,South,173,0.0,5.0,98,0.01,,,0.01,weatherlink.com 1.10,2013-07-06 04:48:00,
2013-07-06 01:03:00,62.3,62.0,30.10,SSW,192,1.0,3.0,98,0.03,,,0.03,weatherlink.com 1.10,2013-07-06 05:03:00,
2013-07-06 01:18:00,62.3,62.0,30.10,South,169,1.0,10.0,98,0.03,,,0.03,weatherlink.com 1.10,2013-07-06 05:18:00,
2013-07-06 01:33:00,62.3,62.0,30.10,South,180,1.0,7.0,99,0.03,,,0.03,weatherlink.com 1.10,2013-07-06 05:33:00,
2013-07-06 01:48:00,62.3,62.0,30.10,SSW,209,2.0,11.0,99,0.03,,,0.04,weatherlink.com 1.10,2013-07-06 05:48:00,
2013-07-06 02:03:00,62.3,62.0,30.10,South,184,0.0,3.0,99,0.01,,,0.04,weatherlink.com 1.10,2013-07-06 06:03:00,
2013-07-06 02:18:00,62.3,62.0,30.11,ESE,114,3.0,4.0,99,0.04,,,0.07,weatherlink.com 1.10,2013-07-06 06:18:00,
2013-07-06 02:33:00,62.3,62.0,30.10,SSE,158,2.0,2.0,99,0.12,,,0.15,weatherlink.com 1.10,2013-07-06 06:33:00,
2013-07-06 02:48:00,62.3,62.0,30.09,SE,144,0.0,4.0,99,0.14,,,0.18,weatherlink.com 1.10,2013-07-06 06:48:00,
2013-07-06 03:03:00,62.0,62.0,30.08,South,180,1.0,3.0,99,0.14,,,0.18,weatherlink.com 1.10,2013-07-06 07:03:00,
2013-07-06 03:18:00,61.6,61.0,30.08,SSE,150,3.0,8.0,99,0.08,,,0.18,weatherlink.com 1.10,2013-07-06 07:18:00,
2013-07-06 03:33:00,61.3,61.0,30.07,SSE,163,1.0,4.0,99,0.03,,,0.18,weatherlink.com 1.10,2013-07-06 07:33:00,
2013-07-06 03:48:00,61.0,61.0,30.08,South,188,1.0,7.0,99,0.00,,,0.18,weatherlink.com 1.10,2013-07-06 07:48:00,
2013-07-06 04:03:00,60.8,61.0,30.08,South,174,0.0,3.0,99,0.00,,,0.18,weatherlink.com 1.10,2013-07-06 08:03:00,
2013-07-06 04:18:00,60.8,61.0,30.07,South,175,0.0,2.0,99,0.00,,,0.18,weatherlink.com 1.10,2013-07-06 08:18:00,
2013-07-06 04:33:00,61.0,61.0,30.08,SW,217,1.0,4.0,99,0.00,,,0.18,weatherlink.com 1.10,2013-07-06 08:33:00,
2013-07-06 04:48:00,61.0,61.0,30.07,South,182,2.0,7.0,99,0.00,,,0.18,weatherlink.com 1.10,2013-07-06 08:48:00,
2013-07-06 05:03:00,60.9,61.0,30.07,SE,135,3.0,8.0,99,0.00,,,0.18,weatherlink.com 1.10,2013-07-06 09:03:00,
2013-07-06 05:18:00,61.0,61.0,30.07,South,181,1.0,7.0,99,0.00,,,0.18,weatherlink.com 1.10,2013-07-06 09:18:00,
2013-07-06 05:33:00,61.1,61.0,30.07,SSE,153,2.0,3.0,99,0.00,,,0.18,weatherlink.com 1.10,2013-07-06 09:33:00,
2013-07-06 05:48:00,61.0,61.0,30.08,South,171,0.0,6.0,99,0.00,,,0.18,weatherlink.com 1.10,2013-07-06 09:48:00,
2013-07-06 06:03:00,61.0,61.0,30.08,SSE,167,1.0,8.0,99,0.00,,,0.18,weatherlink.com 1.10,2013-07-06 10:03:00,
2013-07-06 06:18:00,61.1,61.0,30.08,South,174,1.0,7.0,99,0.00,,,0.18,weatherlink.com 1.10,2013-07-06 10:18:00,
2013-07-06 06:33:00,61.3,61.0,30.08,SSE,151,3.0,4.0,99,0.00,,,0.18,weatherlink.com 1.10,2013-07-06 10:33:00,
2013-07-06 06:48:00,61.4,61.0,30.08,South,169,1.0,6.0,99,0.00,,,0.18,weatherlink.com 1.10,2013-07-06 10:48:00,
2013-07-06 07:03:00,61.6,61.0,30.08,South,182,1.0,9.0,99,0.00,,,0.18,weatherlink.com 1.10,2013-07-06 11:03:00,
2013-07-06 07:18:00,61.9,62.0,30.09,South,186,0.0,3.0,99,0.00,,,0.18,weatherlink.com 1.10,2013-07-06 11:18:00,
2013-07-06 07:33:00,61.9,62.0,30.10,SE,137,3.0,6.0,99,0.00,,,0.18,weatherlink.com 1.10,2013-07-06 11:33:00,
2013-07-06 07:48:00,62.0,62.0,30.10,SSW,202,0.0,9.0,99,0.00,,,0.18,weatherlink.com 1.10,2013-07-06 11:48:00,
2013-07-06 08:03:00,62.2,62.0,30.10,South,169,4.0,7.0,99,0.00,,,0.18,weatherlink.com 1.10,2013-07-06 12:03:00,
2013-07-06 08:18:00,62.5,62.0,30.10,SSW,204,2.0,5.0,99,0.00,,,0.18,weatherlink.com 1.10,2013-07-06 12:18:00,
2013-07-06 08:33:00,62.6,62.0,30.11,SE,144,0.0,8.0,99,0.00,,,0.18,weatherlink.com 1.10,2013-07-06 12:33:00,
2013-07-06 08:48:00,62.7,63.0,30.11,South,171,2.0,10.0,99,0.00,,,0.18,weatherlink.com 1.10,2013-07-06 12:48:00,
2013-07-06 09:03:00,62.6,62.0,30.11,SSW,201,3.0,9.0,99,0.00,,,0.18,weatherlink.com 1.10,2013-07-06 13:03:00,
2013-07-06 09:18:00,63.5,63.0,30.11,SSW,206,4.0,8.0,99,0.00,,,0.18,weatherlink.com 1.10,2013-07-06 13:18:00,
2013-07-06 09:33:00,63.8,64.0,30.10,SSW,208,2.0,11.0,100,0.00,,,0.18,weatherlink.com 1.10,2013-07-06 13:33:00,
2013-07-06 09:48:00,64.5,64.0,30.11,SE,126,4.0,8.0,99,0.00,,,0.18,weatherlink.com 1.10,2013-07-06 13:48:00,
2013-07-06 10:04:00,64.6,64.0,30.11,ESE,114,11.0,11.0,99,0.00,,,0.18,weatherlink.com 1.10,2013-07-06 14:04:00,
2013-07-06 10:18:00,64.8,64.0,30.10,SW,219,0.0,4.0,98,0.00,,,0.18,weatherlink.com 1.10,2013-07-06 14:18:00,
2013-07-06 10:33:00,64.5,63.0,30.10,South,171,0.0,4.0,96,0.00,,,0.18,weatherlink.com 1.10,2013-07-06 14:33:00,
2013-07-06 10:48:00,64.9,64.0,30.10,South,177,0.0,7.0,95,0.00,,,0.18,weatherlink.com 1.10,2013-07-06 14:48:00,
2013-07-06 11:03:00,64.4,63.0,30.10,South,178,2.0,13.0,95,0.00,,,0.18,weatherlink.com 1.10,2013-07-06 15:03:00,
2013-07-06 11:19:00,64.2,63.0,30.11,SSE,167,0.0,7.0,97,0.00,,,0.18,weatherlink.com 1.10,2013-07-06 15:19:00,
2013-07-06 11:34:00,64.3,63.0,30.11,South,184,1.0,5.0,96,0.00,,,0.18,weatherlink.com 1.10,2013-07-06 15:34:00,
2013-07-06 11:48:00,64.5,64.0,30.11,South,190,1.0,7.0,97,0.00,,,0.18,weatherlink.com 1.10,2013-07-06 15:48:00,
2013-07-06 12:03:00,65.2,65.0,30.10,SSE,157,1.0,5.0,98,0.00,,,0.18,weatherlink.com 1.10,2013-07-06 16:03:00,
2013-07-06 12:48:00,69.5,67.0,30.09,South,171,2.0,10.0,91,0.00,,,0.18,weatherlink.com 1.10,2013-07-06 16:48:00,
2013-07-06 14:04:00,69.2,66.0,30.08,South,178,1.0,6.0,89,0.00,,,0.19,weatherlink.com 1.10,2013-07-06 18:04:00,
2013-07-06 14:19:00,69.9,66.0,30.07,SW,215,1.0,7.0,86,0.00,,,0.19,weatherlink.com 1.10,2013-07-06 18:19:00,
2013-07-06 14:34:00,70.0,66.0,30.07,SW,227,3.0,8.0,86,0.00,,,0.19,weatherlink.com 1.10,2013-07-06 18:34:00,
2013-07-06 15:49:00,67.9,65.0,30.05,SSW,211,1.0,7.0,90,0.00,,,0.19,weatherlink.com 1.10,2013-07-06 19:49:00,
2013-07-06 16:04:00,70.8,67.0,30.04,South,169,1.0,3.0,86,0.00,,,0.19,weatherlink.com 1.10,2013-07-06 20:04:00,
2013-07-06 16:19:00,71.6,66.0,30.04,WSW,243,2.0,4.0,81,0.00,,,0.19,weatherlink.com 1.10,2013-07-06 20:19:00,
2013-07-06 16:34:00,70.3,66.0,30.04,SSW,192,5.0,5.0,85,0.00,,,0.19,weatherlink.com 1.10,2013-07-06 20:34:00,
2013-07-06 17:04:00,71.9,66.0,30.04,South,171,2.0,4.0,81,0.00,,,0.19,weatherlink.com 1.10,2013-07-06 21:04:00,
2013-07-06 17:34:00,72.3,65.0,30.05,SSW,200,1.0,5.0,78,0.00,,,0.19,weatherlink.com 1.10,2013-07-06 21:34:00,
2013-07-06 18:19:00,70.7,64.0,30.04,SSE,161,1.0,8.0,80,0.00,,,0.19,weatherlink.com 1.10,2013-07-06 22:19:00,
2013-07-06 18:34:00,69.3,64.0,30.04,South,180,1.0,5.0,83,0.00,,,0.19,weatherlink.com 1.10,2013-07-06 22:34:00,
2013-07-06 18:49:00,68.8,64.0,30.04,SSE,152,0.0,8.0,83,0.00,,,0.19,weatherlink.com 1.10,2013-07-06 22:49:00,
2013-07-06 19:04:00,68.4,64.0,30.04,SSE,168,1.0,5.0,85,0.00,,,0.19,weatherlink.com 1.10,2013-07-06 23:04:00,
2013-07-06 19:34:00,66.3,64.0,30.06,SSE,160,0.0,4.0,92,0.01,,,0.20,weatherlink.com 1.10,2013-07-06 23:34:00,
2013-07-06 20:19:00,64.4,63.0,30.05,South,174,0.0,4.0,95,0.01,,,0.20,weatherlink.com 1.10,2013-07-07 00:19:00,
2013-07-06 20:34:00,64.3,63.0,30.06,SSE,163,0.0,4.0,95,0.00,,,0.20,weatherlink.com 1.10,2013-07-07 00:34:00,
2013-07-06 20:49:00,64.3,63.0,30.06,SSE,163,0.0,3.0,95,0.01,,,0.21,weatherlink.com 1.10,2013-07-07 00:49:00,
2013-07-06 21:04:00,64.0,63.0,30.06,SSE,162,0.0,3.0,96,0.01,,,0.21,weatherlink.com 1.10,2013-07-07 01:04:00,
2013-07-06 21:19:00,63.9,63.0,30.07,SSE,162,0.0,0.0,96,0.01,,,0.21,weatherlink.com 1.10,2013-07-07 01:19:00,
2013-07-06 21:34:00,64.0,63.0,30.07,SSE,161,0.0,3.0,96,0.01,,,0.21,weatherlink.com 1.10,2013-07-07 01:34:00,
2013-07-06 22:04:00,63.8,63.0,30.09,SSE,159,0.0,2.0,97,0.04,,,0.25,weatherlink.com 1.10,2013-07-07 02:04:00,
2013-07-06 22:34:00,63.2,63.0,30.08,South,180,1.0,2.0,98,0.04,,,0.25,weatherlink.com 1.10,2013-07-07 02:34:00,
2013-07-06 23:04:00,62.9,62.0,30.08,South,177,3.0,4.0,98,0.00,,,0.25,weatherlink.com 1.10,2013-07-07 03:04:00,
2013-07-06 23:19:00,62.7,62.0,30.08,South,186,0.0,1.0,98,0.00,,,0.25,weatherlink.com 1.10,2013-07-07 03:19:00,
2013-07-06 23:49:00,63.0,63.0,30.08,South,188,1.0,3.0,99,0.00,,,0.25,weatherlink.com 1.10,2013-07-07 03:49:00,